Location: Krakow
(50.0830°N, 19.9170°E)
Time: 10:08:57
(UTC+01:00)

deb Explorer IX - Visible Passes

Search period start: 11 December 2023 00:00
Search period end: 21 December 2023 00:00
Orbit: 524 x 933 km, 38.7° (Epoch: 10 December)

Date Brightness Start Highest point End Pass type
(mag) Time Alt. Az. Time Alt. Az. Time Alt. Az.
13 Dec ? 18:11:33 10° SSW 18:13:17 14° S 18:13:17 14° S visible
14 Dec ? 17:20:15 10° S 17:21:53 12° SSE 17:23:30 10° SE visible
14 Dec ? 19:03:02 10° SW 19:03:15 11° SW 19:03:15 11° SW visible
15 Dec ? 16:29:32 10° SSE 16:30:05 10° SSE 16:30:38 10° SSE visible
15 Dec ? 18:11:11 10° SW 18:13:47 16° S 18:13:52 16° S visible
16 Dec ? 17:19:22 10° SSW 17:21:56 16° S 17:24:24 10° SE visible
16 Dec ? 19:03:19 10° SW 19:03:49 12° SW 19:03:49 12° SW visible
17 Dec ? 16:27:37 10° SSW 16:30:03 15° S 16:32:24 10° SE visible
17 Dec ? 18:11:10 10° SW 18:13:48 16° S 18:14:25 16° S visible
18 Dec ? 17:19:04 10° SW 17:21:55 17° S 17:24:39 10° SE visible
18 Dec ? 19:04:05 10° SW 19:04:23 11° SW 19:04:23 11° SW visible
19 Dec ? 16:26:58 10° SW 16:29:58 18° S 16:32:49 10° SE visible
19 Dec ? 18:11:26 10° SW 18:13:42 14° SSW 18:15:03 12° S visible
20 Dec ? 17:19:01 10° SW 17:21:46 17° S 17:24:25 10° SSE visible
